Terug naar catalogus

FENGYUN 1C DEB

ActiefPO
NORAD 32326·DEBRIS·🇨🇳 China

Gelanceerd May 10, 1999 vanaf Taiyuan Satellite Launch Center

Loading…

Volgende Passages (komende 24 uur)

TLE

VerouderendSource: Space-Track

Epoch: Sep 5, 2026, 04:32 UTC

1 32326U 99025CXT 26248.18896348  .00000313  00000-0  23567-3 0  9993
2 32326  98.4853 151.8874 0385283 147.3430 215.2188 13.69665260668292

Volg FENGYUN 1C DEB in realtime met AllMySat

Download on the App Store